Время (UTC), дата Ветер
(°,м/с) 
Видим.   Явления Облачность Т
(°С)
Тd
(°С)
f(%) Тe
(°С)
Pmin
(гПа)
dP
(гПа)
Po
(мм)
O2
(г/м3)
Тmin Tmax R s Состояние
почвы
00 01.03.16 060 (СВ) 10 км    ясно 
+8 +6.4 90 +9  1025.9  -1.5  767  299           
03 01.03.16 090 (В) 10 км    ясно 
+7 +5.8 92 +8  1024.8  -1.5  766  300  +6.9         
06 01.03.16 110 (В) 10 км    10/0 верхняя 
[Cs]
+9.3 +5.8 79 +9  1024  -0.7  765  297  +6.5         
09 01.03.16 070 (В) 10 км    10/0 верхняя 
[Cs]
+18.7 +2.8 35 +20  1021.2  -2.6  763  287           
12 01.03.16 060 (СВ) 10 км    10/0 верхняя 
[Ci fib]
+21.1 +4.2 33 +21  1018  -3.2  761  284           
15 01.03.16 040 (СВ) 10 км    10/0 верхняя 
[Ci fib]
+19.3 +6.1 42 +20  1015.9  -2.1  759  285    +21.4       
18 01.03.16 080 (В) 10 км    6/0 верхняя 
[Ci fib]
+13.9 +7.1 64 +14  1013.8  -2.1  758  289           
21 01.03.16 080 (В) 10 км    5/3 1000 м верхняя 
[Sc|Ci fib]
+10.8 +5 67 +11  1012  -1.9  756  292           
00 02.03.16 070 (В) 10 км    10/5 1000 м верхняя 
[Sc|Ci fib]
+8.8 +3.9 71 +10  1010.9  -1.1  755  294           
03 02.03.16 050 (СВ) 10 км    6/6 1000 м 
[Sc]
+7.1 +3.4 77 +8  1010.6  -0.3  755  296  +6.9         
06 02.03.16 060 (СВ) 10 км    10/0 средняя, верхняя 
[Ac cast|Cc]
+8.5 +3.8 72 +10  1011.4  0.8  756  295  +6.4         
09 02.03.16 320 (СЗ) 10 км    6/1 1000 м средняя, верхняя 
[Sc|Ac cast|Ci fib]
+16.3 +4.3 45 +17  1011.2  0.1  756  287           
12 02.03.16 100 (В) 10 км    10/0 средняя, верхняя 
[Ac trans|Cc]
+19.2 +4.8 39 +20  1009.4  -1.7  754  283           
15 02.03.16 070 (В) 10 км    10/0 средняя, верхняя 
[Ac trans|Cc]
+18.1 +5.1 42 +20  1008.9  -0.5  754  284    +21.7       
18 02.03.16 080 (В) 10 км    10/0 средняя, верхняя 
[Ac cast|Ci fib]
+14.6 +5 52 +16  1008.1  -0.8  753  287           
21 02.03.16 тихо ()   10 км    10/0 средняя, верхняя 
[Ac trans|Ci fib]
+11.9 +4.9 62 +12  1007.5  -0.6  753  290           
00 03.03.16 тихо ()   10 км    10/3 1000 м средняя 
[Sc|Ac trans]
+10 +4.7 70 +10  1006  -1.6  752  291           
03 03.03.16 080 (В) 10 км    10/0 средняя 
[Ac und]
+8.6 +4.7 76 +10  1005.8  -0.2  752  293  +8.5         
06 03.03.16 080 (В) 10 км    10/10 1000 м 
[Sc]
+7.8 +4.3 79 +8  1005  -0.8  751  294  +7.7         
09 03.03.16 070 (В) 10 км    10/10 1000 м 
[Sc]
+9.3 +4.5 72 +9  1005  751  292           
12 03.03.16 070 (В) 10 км    10/10 1000 м 
[Sc]
+10.7 +5.2 69 +10  1003.7  -1.2  750  290           
15 03.03.16 070 (В) 10 км    10/8 1000 м средняя 
[Sc|Ac und]
+11.5 +5.4 66 +12  1002.4  -1.3  749  289    +11.9       
18 03.03.16 080 (В) 10 км    10/10 1000 м 
[Sc]
+10.1 +5.3 72 +10  1002.8  0.5  749  290           
21 03.03.16 090 (В) 10 км    10/10 600 м 
[Sc]
+9.7 +5.3 74 +10  1002.7  -0.2  749  291           
00 04.03.16 180 (Ю) 10 км    9/6 1000 м верхняя 
[Sc|Ci fib]
+14.5 +5.8 56 +15  1004.1  1.5  750  286           
03 04.03.16 180 (Ю) 2{10}  10 км    9/9 1000 м 
[Sc]
+11.6 +7.4 75 +12  1007.2  753  290  +9.3         
06 04.03.16 180 (Ю) 10 км    4/4 1000 м 
[Sc]
+13.5 +7.6 67 +14  1008  0.7  753  288           
09 04.03.16 210 (ЮЗ) 5-10{11}  10 км    4/3 1000 м верхняя 
[Cu hum|Ci fib]
+17.9 +5.7 45 +18  1007.5  -0.4  753  284           
12 04.03.16 200 (Ю) 5{10}  10 км    9/1 1000 м средняя, верхняя 
[Cu med, cong|Ac trans|Ci sp]
+17.9 +4.2 40 +18  1006.6  -0.8  752  284           
15 04.03.16 190 (Ю) 2{10}  10 км    10/4 1000 м средняя, верхняя 
[Sc|Ac trans|Ci fib]
+16.5 +3.7 42 +17  1006.6  752  285    +18.4       
18 04.03.16 тихо ()   10 км    10/4 1000 м средняя, верхняя 
[Sc|Ac As|Ci fib]
+12.3 +4.7 60 +12  1006.6  752  289           
21 04.03.16 100 (В) 10 км    8/3 1000 м средняя 
[Sc|Ac trans]
+12.2 +3.5 55 +13  1007.1  0.5  753  290           
00 05.03.16 080 (В) 10 км    8/3 1000 м средняя 
[Sc|Ac trans]
+11.1 +3.8 61 +12  1006  -1.1  752  291           
03 05.03.16 080 (В) 10 км  {ливн. осадки}  10/10 600 м кучево-дожд. 
[Cb cap]
+11.5 +6.8 73 +13  1005.5  -0.5  751  289  +10.7    0.5     
06 05.03.16 130 (ЮВ) 10 км  {ливн. осадки}  10/8 1000 м средняя 
[Sc|Ac und]
+12.8 +7.6 71 +13  1006.3  0.8  752  288           
09 05.03.16 160 (Ю) 4000 м  слаб. дождь  9/8 1000 м средняя 
[Sc|Ac trans]
+12.6 +9.6 82 +14  1007.7  1.4  753  288           
12 05.03.16 210 (ЮЗ) 10 км  {дождь}  10/6 600 м средняя, верхняя 
[Cu Sc|Ac lent|Ci fib]
+16.7 +6.7 52 +18  1007.7  753  285           
15 05.03.16 240 (ЮЗ) 10 км    9/6 600 м средняя, верхняя 
[Sc|Ac trans|Ci fib]
+15.5 +5.6 52 +16  1009.2  1.5  754  287    +17.3     
18 05.03.16 тихо ()   10 км    ясно 
+11.6 +5.4 66 +12  1010.8  1.6  755  291           
21 05.03.16 тихо ()   10 км    10/0 верхняя 
[Ci]
+8.9 +6.2 83 +9  1012.6  1.7  757  294           
00 06.03.16 290 (З) 0500 м  туман  ?/?  
+5.4 +4.3 93 +5  1014.1  1.5  758  299           
03 06.03.16 280 (З) 1000 м  слаб. дождь{туман}  10/10 200 м 
[St]
+7 +6 93 +7  1015.5  1.4  759  297  +5.4    0.0     
06 06.03.16 220 (ЮЗ) 4000 м  дымка  10/10 300 м 
[St]
+8.7 +5.6 81 +10  1017.1  1.7  760  296           
09 06.03.16 120 (ЮВ) 4000 м  дымка  9/9 300 м 
[St]
+10.1 +5.3 72 +11  1018.2  761  295           
12 06.03.16 080 (В) 10 км    3/3 1000 м 
[Sc]
+13.3 +5 57 +15  1017.8  -0.3  761  291           
15 06.03.16 120 (ЮВ) 10 км    ясно 
+11.8 +5.5 65 +13  1018.1  0.3  761  293    +14.3  0.0     
18 06.03.16 100 (В) 10 км    ясно 
+9.5 +5.6 77 +10  1019.8  1.6  762  296           
21 06.03.16 090 (В) 4000 м  дымка  ясно 
+7.5 +5.3 86 +8  1019.9  0.1  762  298           
00 07.03.16 тихо ()   4000 м  дымка  ясно 
+5.4 +3.9 90 +5  1020.2  0.3  762  301           
03 07.03.16 070 (В) 0200 м  туман  ?/?  
+4.4 +3.4 93 +4  1020.7  0.4  763  302  +4.4         
06 07.03.16 070 (В) 0200 м  туман  ?/?  
+4.8 +4 95 +6  1021.9  1.2  764  302  +3.4         
09 07.03.16 070 (В) 4000 м  дымка{туман}  10/3 300 м верхняя 
[St|Ci fib]
+11.4 +7 74 +12  1020.9  -0.9  763  294           
12 07.03.16 060 (СВ) 10 км    10/0 верхняя 
[Ci fib]
+14.3 +6.7 60 +14  1019.4  -1.5  762  291           
15 07.03.16 050 (СВ) 10 км    8/8 300 м 
[St]
+10.9 +7.3 78 +11  1019.2  -0.1  762  294    +14.7       
18 07.03.16 030 (СВ) 4000 м  дымка  ясно 
+8.9 +7 88 +10  1018.6  -0.7  761  296           
21 07.03.16 060 (СВ) 10 км    ясно 
+8.2 +5.8 85 +9  1017.7  -0.9  761  297           
00 08.03.16 080 (В) 10 км    ясно 
+6.3 +4.1 86 +6  1016.7  -1  760  299           
03 08.03.16 070 (В) 10 км    ясно 
+5.9 +3.9 87 +6  1016.9  0.2  760  299  +5.7         
06 08.03.16 070 (В) 10 км    8/8 300 м 
[St]
+8.4 +4.9 79 +8  1017.5  0.6  760  296  +5.5         
09 08.03.16 080 (В) 10 км    3/3 300 м 
[St]
+13.2 +5.6 60 +13  1017  -0.5  760  291           
12 08.03.16 050 (СВ) 10 км    3/0 верхняя 
[Ci fib]
+16.4 +6.5 52 +17  1015.5  -1.4  759  287           
15 08.03.16 050 (СВ) 3{11}  10 км    8/0 верхняя 
[Ci fib]
+13.8 +4.9 55 +14  1015.6  -0.1  759  290    +16.7       
18 08.03.16 050 (СВ) 10 км    ясно 
+10.4 +3.4 62 +11  1016.3  0.6  759  294           
21 08.03.16 050 (СВ) 10 км    ясно 
+7.7 +2 67 +8  1016.2  0.1  759  297           
00 09.03.16 060 (СВ) 10 км    ясно 
+5.5 +1.2 74 +6  1015.9  -0.3  759  300           
03 09.03.16 060 (СВ) 10 км    ясно 
+4.1 +0.8 79 +4  1016.3  0.4  759  301  +4         
06 09.03.16 070 (В) 10 км    ясно 
+6.5 +1.3 69 +6  1017.3  760  299  +3         
09 09.03.16 050 (СВ) 10 км    ясно 
+13.2 +2 47 +13  1016.8  -0.5  760  292           
12 09.03.16 050 (СВ) 10 км    ясно 
+16.5 +2.8 40 +17  1015.5  -1.2  759  288           
15 09.03.16 050 (СВ) 10 км    ясно 
+13.8 +3.1 48 +14  1015.6  -1.2  759  291    +16.6       
18 09.03.16 050 (СВ) 10 км    ясно 
+9 +3 66 +8  1016.6  0.9  760  296           
21 09.03.16 070 (В) 10 км    9/9 300 м 
[St]
+5.4 +2.3 80 +5  1016.2  -0.4  759  300           
00 10.03.16 040 (СВ) 10 км    9/0 верхняя 
[Ci fib]
+4.1 +1.6 84 +5  1015.6  -0.6  759  301           
03 10.03.16 080 (В) 10 км    10/10 300 м 
[St]
+4.8 +2 82 +4  1015.4  -0.3  759  300  +3.6         
06 10.03.16 060 (СВ) 10 км    10/10 300 м 
[St]
+5.2 +2.1 80 +4  1015.7  0.4  759  300           
09 10.03.16 060 (СВ) 10 км    10/10 300 м 
[St]
+6.4 +2.4 76 +5  1015.2  -0.5  759  298           
12 10.03.16 040 (СВ) 10 км    8/8 1000 м 
[Sc]
+9.9 +3.4 64 +10  1013.7  -1.5  758  294           
15 10.03.16 050 (СВ) 10 км    ясно 
+10.8 +3.1 59 +10  1012.5  -1.1  757  293    +11.5       
18 10.03.16 050 (СВ) 2{10}  10 км    4/0 средняя, верхняя 
[Ac trans|Ci fib]
+6.2 +1.7 73 +6  1013.3  0.8  757  298           
21 10.03.16 040 (СВ) 10 км    4/0 верхняя 
[Ci fib]
+4.3 +1.2 80 +4  1013.3  0.1  757  300           
00 11.03.16 050 (СВ) 10 км    ясно 
+4.5 +1.1 79 +4  1013.3  757  300           
03 11.03.16 050 (СВ) 10 км    10/3 1000 м средняя, верхняя 
[Sc|Ac trans|Ci fib]
+4.8 +1.3 78 +4  1013.7  0.4  757  300  +3.9         
06 11.03.16 070 (В) 10 км  в посл. час ливневой дождь  9/8 1000 м кучево-дожд., средняя 
[Cb cap|Ac trans]
+6.1 +2 75 +5  1014.8  1.2  758  299           
09 11.03.16 090 (В) 10 км    10/6 1000 м средняя, верхняя 
[Sc|Ac trans|Ci sp]
+8.9 +2.7 65 +8  1015.8  759  296           
12 11.03.16 050 (СВ) 10 км    10/10 1000 м 
[Sc]
+10.6 +3.7 62 +11  1015.7  759  294           
15 11.03.16 060 (СВ) 4000 м  слаб. ливневой дождь  10/10 600 м кучево-дожд. 
[Cb cap]
+8.8 +5.5 80 +9  1017.1  1.3  760  296    +10.6  0.5     
18 11.03.16 130 (ЮВ) 10 км  {ливн. осадки}  10/10 1000 м 
[Sc diur, vesp]
+8.5 +6.5 87 +10  1018.1  761  296           
21 11.03.16 200 (Ю) 10 км    10/10 1000 м 
[Sc diur, vesp]
+8.6 +5.1 79 +10  1018.6  761  297           
00 12.03.16 200 (Ю) 10 км    10/10 1000 м 
[Sc diur, vesp]
+8 +4.8 80 +9  1019.2  0.6  762  297           
03 12.03.16 250 (З) 10 км    10/10 1000 м 
[Sc diur, vesp]
+7.8 +5.5 85 +9  1019.8  0.5  762  298  +7.7       
06 12.03.16 270 (З) 4000 м  дымка  10/10 300 м 
[St]
+7.7 +5.4 85 +8  1021.2  1.4  763  298  +7.4         
09 12.03.16 270 (З) 10 км    10/10 300 м 
[St]
+8.8 +4.9 76 +9  1021.9  0.7  764  297           
12 12.03.16 270 (З) 10 км    9/8 600 м средняя 
[St|Ac trans]
+11.6 +4.8 63 +12  1021.7  0.1  764  294           
15 12.03.16 320 (СЗ) 10 км    9/9 1000 м 
[Sc]
+10 +5.2 72 +11  1021.8  764  296    +12.2       
18 12.03.16 тихо ()   10 км    10/8 600 м средняя, верхняя 
[Sc|Ac trans|Ci fib]
+8.6 +5 78 +9  1022.8  0.9  764  298           
21 12.03.16 220 (ЮЗ) 10 км    10/8 300 м средняя 
[St|Ac und]
+8.2 +5 80 +9  1023  0.2  764  298           
00 13.03.16 240 (ЮЗ) 10 км    10/8 300 м средняя 
[St|Ac und]
+7.1 +4.5 84 +8  1022.5  -0.6  764  299           
03 13.03.16 330 (СЗ) 10 км    10/10 300 м 
[St]
+6 +4.1 88 +7  1022.1  -0.4  764  301  +6         
06 13.03.16 310 (СЗ) 10 км    10/10 600 м 
[Sc]
+6.2 +3.5 83 +7  1022.5  0.4  764  301  +5.5         
09 13.03.16 300 (СЗ) 10 км  {морось}  10/10 600 м 
[St]
+8.2 +3.7 73 +9  1021.8  -0.7  764  298           
12 13.03.16 300 (СЗ) 10 км  {морось}  9/9 1000 м 
[Sc]
+10.5 +4.3 65 +12  1020  -1.7  762  295           
15 13.03.16 330 (СЗ) 10 км    10/10 1000 м 
[Sc]
+9.3 +3.4 67 +10  1018.8  -1.2  761  296    +10.6  0.0     
18 13.03.16 тихо ()   10 км    9/8 1000 м средняя 
[Sc|Ac trans]
+7.1 +1.9 69 +7  1018.9  0.1  761  299           
21 13.03.16 тихо ()   10 км    10/0 верхняя 
[Ci fib]
+4.6 +1.8 82 +5  1017.5  -1.4  760  301           
00 14.03.16 тихо ()   10 км    10/0 средняя 
[Ac trans]
+3.7 +1.7 87 +4  1015.7  -1.8  759  301           
03 14.03.16 020 (С) 10 км    8/0 верхняя 
[Ci fib]
+3 +0.9 86 +4  1014.3  -1.3  758  302  +2.8         
06 14.03.16 080 (В) 10 км    8/0 средняя, верхняя 
[Ac trans|Ci fib]
+7.7 +1.3 64 +9  1013.4  -0.8  757  297           
09 14.03.16 300 (СЗ) 10 км    10/8 1000 м верхняя 
[Sc|Ci fib]
+9.5 +1.1 56 +9  1011.8  -1.6  756  294           
12 14.03.16 300 (СЗ) 10 км  {морось}  10/10 300 м 
[St]
+6.7 +1.9 71 +7  1010.5  -1.3  755  297           
15 14.03.16 320 (СЗ) 10 км    4/4 1000 м 
[Sc]
+6.7 -0.9 58 +7  1010  -0.4  755  297    +10.7  0.0     
18 14.03.16 280 (З) 10 км    9/9 300 м 
[St]
+4 -1 70 +4  1009.6  -0.4  754  300           
21 14.03.16 350 (С) 10 км    10/10 300 м 
[St]
+4.2 +0.6 77 +4  1009.8  0.2  755  299           
00 15.03.16 360 (С) 10 км  в посл. час ливневой дождь  10/10 600 м кучево-дожд. 
[Cb cap]
+2.9 +1.2 89 +4  1011.1  1.3  756  301           
03 15.03.16 020 (С) 10 км    10/10 300 м 
[Sc diur, vesp]
+1.4 -0.8 85 +1  1013.4  2.2  757  304  +1.4    0.1     
06 15.03.16 010 (С) 4000 м  слаб. снег{дождь}  10/10 300 м 
[St]
+1.7 -1.1 82 +1  1016.1  2.7  759  304  +1.1         
09 15.03.16 020 (С) 4000 м  слаб. снег  10/10 300 м 
[Frnb|Ns]
+2.8 -2.3 69 +2  1018.1  761  304           
12 15.03.16 020 (С) 10 км  {снег}  10/10 600 м 
[Sc]
+4.1 -3.7 57 +4  1019.1  761  303           
15 15.03.16 060 (СВ) 10 км    8/8 1000 м 
[Sc]
+3.3 -6.4 49 +4  1020.2  762  304    +4.7  0.0     
18 15.03.16 040 (СВ) 10 км    9/9 1000 м 
[Sc]
+2.4 -7 50 +3  1021.7  1.5  764  306           
21 15.03.16 030 (СВ) 10 км    8/8 600 м 
[Sc]
+1.7 -7.4 51 +2  1022.3  0.5  764  307           
00 16.03.16 020 (С) 10 км    5/5 1000 м 
[Sc]
+1.1 -7.9 51 +2  1022.7  0.4  764  308           
03 16.03.16 тихо ()   10 км    10/5 600 м средняя, верхняя 
[Sc|Ac trans|Ci fib]
+0.2 -7.9 54 1022.7  764  309  -0.2         
06 16.03.16 020 (С) 10 км    9/4 1000 м средняя 
[Sc|Ac trans]
+3.4 -8.8 40 +4  1023.7  765  305  -0.4         
09 16.03.16 320 (СЗ) 10 км    8/8 1000 м 
[Sc]
+6.4 -9.2 32 +6  1023.6  0.1  765  302           
12 16.03.16 310 (СЗ) 10 км    5/5 1000 м 
[Sc diur, vesp]
+7.6 -9 30 +8  1022.5  -1  764  300           
15 16.03.16 290 (З) 10 км    3/3 1000 м 
[Sc diur, vesp]
+5.6 -9.1 34 +5  1022.2  -0.3  764  303    +8       
18 16.03.16 260 (З) 10 км    ясно 
+2.1 -8.2 46 +3  1023.1  0.9  764  307           
21 16.03.16 220 (ЮЗ) 10 км    ясно 
+1 -6.1 59 1022.6  -0.6  764  307           
00 17.03.16 230 (ЮЗ) 10 км    10/0 средняя, верхняя 
[Ac trans|Ci fib]
+1.9 -4.7 62 1021.4  -1.2  763  306           
03 17.03.16 240 (ЮЗ) 10 км    9/0 средняя 
[Ac trans]
+4.1 -4.3 54 +3  1020.4  -1  762  303  -0.2         
06 17.03.16 230 (ЮЗ) 5{10}  10 км    10/8 1000 м средняя 
[Sc|Ac und]
+6 -3.5 50 +4  1020.4  762  301           
09 17.03.16 240 (ЮЗ) 4-10{13}  10 км    10/8 1000 м средняя 
[Sc|Ac und]
+8.7 -4.2 40 +8  1019.8  -0.6  762  298           
12 17.03.16 220 (ЮЗ) 5-10{12}  10 км    10/10 1000 м 
[Sc]
+8 -2.7 47 +6  1018.9  -0.8  761  298           
15 17.03.16 220 (ЮЗ) 4{12}  10 км    10/8 1000 м средняя 
[Sc|Ac und]
+7.7 -4.7 41 +6  1017.9  -1  761  299    +9.1       
18 17.03.16 220 (ЮЗ) 4-10{10}  10 км    10/9 1000 м средняя 
[Sc|Ac und]
+7.7 -1.5 52 +6  1017.9  761  298           
21 17.03.16 220 (ЮЗ) 4{10}  10 км    10/10 1000 м 
[Sc]
+7.6 -0.6 56 +6  1017  -0.9  760  298           
00 18.03.16 220 (ЮЗ) 3{10}  10 км    9/9 300 м 
[St]
+7.6 -0 59 +7  1015.8  -1.3  759  298           
03 18.03.16 210 (ЮЗ) 4-11{11}  10 км    10/10 300 м 
[St]
+7.5 -0.3 58 +6  1014.4  -1.4  758  297  +7.4         
06 18.03.16 210 (ЮЗ) 5-10{13}  10 км  в посл. час дождь{морось}  10/10 300 м 
[St]
+6.6 +1.5 70 +5  1013.8  -0.6  758  298  +6.6         
09 18.03.16 260 (З) 3{13}  4000 м  слаб. дождь  10/10 300 м 
[Frnb]
+5.4 +3.1 85 +4  1013.7  -0.2  758  299           
12 18.03.16 230 (ЮЗ) 4000 м  слаб. дождь  10/10 300 м 
[Frnb|Ns]
+5.3 +3.6 89 +4  1012.5  -1.2  757  299           
15 18.03.16 200 (Ю) 4-10{10}  4000 м  слаб. дождь  10/10 300 м 
[Frnb|Ns]
+6.2 +3.6 83 +5  1011.1  -1.4  756  297    +7.7     
18 18.03.16 210 (ЮЗ) 5-13{13}  10 км  {дождь}  10/10 600 м 
[Sc]
+7.2 +2.2 70 +5  1010.4  -0.7  755  296           
21 18.03.16 200 (Ю) 6-11{13}  10 км    10/10 1000 м 
[Sc]
+7.2 +0.8 64 +5  1008.5  -1.9  754  296           
00 19.03.16 210 (ЮЗ) 6-11{14}  10 км    10/3 1000 м верхняя 
[Sc|Ci fib]
+7.3 -0.3 58 +5  1007.3  -1.3  753  295           
03 19.03.16 210 (ЮЗ) 5-10{13}  10 км    10/8 1000 м средняя, верхняя 
[Sc|Ac trans|Ci fib]
+8 -0.9 53 +6  1005.3  -1.9  751  294  +6.1    0.6     
06 19.03.16 200 (Ю) 7-15{17}  10 км    9/3 1000 м средняя 
[Sc|Ac As]
+9.5 -1 48 +8  1003.6  -1.8  750  292           
09 19.03.16 200 (Ю) 7-16{18}  10 км    10/4 1000 м средняя 
[Sc|Ac As]
+11.1 +0.2 47 +9  1003.2  -0.4  750  290           
12 19.03.16 220 (ЮЗ) 5-10{16}  10 км    10/10 600 м кучево-дожд. 
[Cb cap]
+10.4 +2.5 58 +9  1003.3  0.1  750  291           
15 19.03.16 270 (З) 3{11}  10 км  {ливн. осадки}  10/8 1000 м средняя 
[Sc|Ac As]
+6.9 +0.8 65 +6  1005.8  2.5  752  295    +12     
18 19.03.16 270 (З) 4{11}  10 км  в посл. час ливневой дождь  10/10 600 м 
[Sc]
+3.6 -2.2 66 +2  1009.3  3.4  754  300           
21 19.03.16 310 (СЗ) 2{10}  10 км    10/1 600 м средняя 
[Sc|Ac und]
-0.4 -4.5 74 -1  1013  3.6  757  306           
00 20.03.16 330 (СЗ) 10 км    9/9 300 м 
[St]
-0.7 -4.5 75 1014.1  1.1  758  307           
03 20.03.16 270 (З) 10 км  {ливн. осадки}  10/0 средняя, верхняя 
[Ac trans|Ci fib]
-1.2 -4.4 79 -1  1015.6  1.5  759  308  -1.3    0.3     
06 20.03.16 260 (З) 10 км  {ливн. осадки}  5/5 1000 м кучево-дожд. 
[Cb cap]
+0.5 -4.2 71 1018  2.4  761  306           
09 20.03.16 330 (СЗ) 10 км    10/8 1000 м кучево-дожд., верхняя 
[Cb cap|Ci fib]
+3.2 -8.4 42 +3  1018.8  0.8  761  304           
12 20.03.16 270 (З) 10 км    4/4 1000 м кучево-дожд. 
[Cb cap]
+4.5 -9.4 36 +3  1018.2  -0.6  761  303           
15 20.03.16 240 (ЮЗ) 10 км    ясно 
+5.3 -10.7 30 +5  1018  -0.2  761  302    +6  0.2     
18 20.03.16 200 (Ю) 10 км    10/0 верхняя 
[Ci fib]
+1.8 -8.6 46 1019  0.9  761  306           
21 20.03.16 210 (ЮЗ) 10 км    8/0 верхняя 
[Ci fib]
+1.7 -6.7 54 1019.3  0.3  762  306           
00 21.03.16 220 (ЮЗ) 10 км    8/0 верхняя 
[Ci fib]
+2.3 -5.8 55 +2  1018.9  -0.4  761  305           
03 21.03.16 190 (Ю) 4{11}  10 км    8/6 1000 м средняя 
[Sc|Ac trans]
+3.4 -3.1 62 +1  1018.3  -0.6  761  303  +1.1         
06 21.03.16 200 (Ю) 10 км    9/9 1000 м 
[Sc]
+4.7 -1 66 +3  1019.1  0.8  761  302           
09 21.03.16 220 (ЮЗ) 5{11}  10 км    9/9 1000 м кучево-дожд. 
[Cb cap]
+8.5 -2.1 47 +7  1018.9  0.1  761  298           
12 21.03.16 190 (Ю) 4{12}  10 км    8/8 1000 м кучево-дожд. 
[Cb cap]
+8.6 -0.1 54 +7  1018.5  -0.4  761  297           
15 21.03.16 220 (ЮЗ) 3{10}  10 км    6/6 1000 м кучево-дожд. 
[Cb cap]
+6.9 -0.6 59 +6  1018.1  -0.4  761  299    +9.8       
18 21.03.16 170 (Ю) 10 км    3/3 1000 м кучево-дожд. 
[Cb cap]
+5.4 -1 63 +6  1017.5  -0.6  760  301           
21 21.03.16 170 (Ю) 10 км    8/3 1000 м верхняя 
[Sc diur, vesp|Ci fib]
+5.8 -0.3 65 +5  1017.2  -0.3  760  300           
00 22.03.16 200 (Ю) 4000 м  дымка  10/10 1000 м 
[Sc diur, vesp]
+6.9 -0 61 +6  1016.4  -0.8  760  298           
03 22.03.16 200 (Ю) 4000 м  дымка  10/3 1000 м верхняя 
[Sc diur, vesp|Ci fib]
+6.8 +0.7 65 +7  1015.5  -0.9  759  298  +5         
06 22.03.16 190 (Ю) 10 км    8/0 средняя, верхняя 
[Ac trans|Ci fib]
+10.2 -0.3 48 +10  1015.6  0.2  759  295           
09 22.03.16 200 (Ю) 10 км    10/3 1000 м верхняя 
[Sc|Ci fib]
+14.7 -2.8 30 +14  1014.1  -1.4  758  290           
12 22.03.16 190 (Ю) 6-13{13}  10 км    10/6 1000 м кучево-дожд., средняя, верхняя 
[Cb cap|Ac trans|Ci fib]
+13.2 -3.7 31 +12  1012.9  -1.2  757  291           
15 22.03.16 180 (Ю) 3{13}  10 км    10/3 1000 м средняя, верхняя 
[Sc|Ac trans|Ci fib]
+11.8 -1.6 39 +12  1011.9  -1  756  292    +14.7       
18 22.03.16 170 (Ю) 10 км    10/3 1000 м средняя, верхняя 
[Sc|Ac trans|Ci fib]
+10.6 -2.2 41 +11  1010.4  -1.4  755  293           
21 22.03.16 210 (ЮЗ) 10 км    10/5 1000 м средняя 
[Sc|Ac und]
+11.5 -4.1 33 +11  1009  -1.4  754  292           
03 23.03.16 240 (ЮЗ) 2{11}  10 км  слаб. ливневой дождь  9/9 1000 м кучево-дожд. 
[Cb cap]
+10.9 +4.5 65 +11  1004.3  -1.4  750  290  +10.2         
06 23.03.16 270 (З) 4000 м  слаб. ливневой дождь  10/10 300 м кучево-дожд. 
[Cb cap]
+8.9 +7 88 +8  1007.4  3.1  753  293  +8.9         
09 23.03.16 280 (З) 2{10}  10 км  {ливн. осадки}  8/8 600 м кучево-дожд. 
[Cb cap]
+9.3 +4.7 73 +9  1011.8  4.3  756  294           
12 23.03.16 320 (СЗ) 10 км  {ливн. осадки}  10/6 1000 м средняя, верхняя 
[Sc diur, vesp|Ac trans|Ci fib]
+12.4 +2.9 52 +13  1013.2  1.5  757  291           
15 23.03.16 130 (ЮВ) 10 км    9/3 1000 м средняя 
[Sc|Ac trans]
+11.4 +2.7 55 +13  1013.1  0.1  757  292    +13.3     
18 23.03.16 210 (ЮЗ) 10 км    8/8 1000 м 
[Sc]
+10.4 +5.4 71 +11  1013.5  0.4  757  293           
21 23.03.16 100 (В) 10 км    10/5 1000 м средняя, верхняя 
[Sc|Ac trans|Ci fib]
+9.7 +5.3 74 +10  1011.6  -2  756  293           
00 24.03.16 070 (В) 10 км  слаб. ливневой дождь  10/10 600 м кучево-дожд. 
[Cb cap]
+8.6 +4.9 78 +10  1010.7  -0.9  755  294           
03 24.03.16 090 (В) 10 км  в посл. час ливневой дождь  10/10 600 м кучево-дожд. 
[Cb cap]
+7.8 +5.3 84 +7  1007.9  -2.8  753  294  +7.8       
06 24.03.16 090 (В) 10 км  {ливн. осадки}  10/8 1000 м средняя 
[Sc diur, vesp|Ac und]
+9.3 +6 80 +9  1004.4  -3.3  751  292  +7.5         
09 24.03.16 160 (Ю) 10 км    10/0 средняя 
[Ac und]
+15.9 +7.4 57 +17  1001.9  -2.5  749  284           
12 24.03.16 200 (Ю) 7-16{16}  10 км    10/0 средняя 
[Ac und]
+23.1 +0.4 22 +23  1000.5  -1.3  748  278           
15 24.03.16 180 (Ю) 4-10{19}  10 км    10/0 средняя 
[Ac und]
+21.2 +0.5 25 +21  1000.8  0.3  748  280    +23.3       
18 24.03.16 190 (Ю) 4{18}  10 км    10/8 1000 м средняя 
[Sc|Ac und]
+18.9 +3.4 36 +19  1002.6  1.7  749  282           
21 24.03.16 160 (Ю) 1{10}  10 км    10/10 300 м 
[St]
+16 +6.9 55 +17  1001.7  -0.9  749  284           
00 25.03.16 320 (СЗ) 10 км    10/10 600 м кучево-дожд. 
[Cb cap]
+13.9 +7.9 67 +15  1001.6  0.1  749  286           
03 25.03.16 150 (ЮВ) 10 км  в посл. час ливневой дождь  10/10 600 м кучево-дожд. 
[Cb cap]
+12.4 +8.8 79 +14  1002.2  0.6  749  287  +12.4    0.7     
06 25.03.16 280 (З) 10 км  в посл. час ливневой дождь  9/5 1000 м кучево-дожд., средняя 
[Cb cap|Ac trans]
+14.9 +7.4 61 +16  1004.4  2.2  751  286  +12.3         
09 25.03.16 220 (ЮЗ) 4000 м  слаб. дождь  10/10 300 м 
[Frnb]
+14 +9.8 76 +16  1006.3  1.8  752  286           
12 25.03.16 190 (Ю) 4{10}  10 км  {дождь}  9/8 300 м средняя 
[St|Ac As]
+14.1 +8.5 69 +14  1007.2  0.9  753  287           
15 25.03.16 240 (ЮЗ) 3{10}  10 км    9/9 600 м 
[Sc]
+10.3 +5.6 73 +10  1009.6  2.3  755  292    +15.8  0.9     
18 25.03.16 220 (ЮЗ) 10 км    8/8 600 м 
[Sc]
+9.5 +4.5 71 +8  1011.5  2.3  756  294           
21 25.03.16 270 (З) 10 км    10/10 300 м 
[St]
+6.7 +3.9 82 +7  1012.9  1.4  757  297           
00 26.03.16 280 (З) 10 км    10/10 300 м 
[St]
+5.9 +3.5 85 +6  1013.1  0.2  757  298           
03 26.03.16 300 (СЗ) 10 км    10/10 300 м 
[St]
+5.1 +2.7 84 +5  1013.3  0.2  757  299  +5.1         
06 26.03.16 тихо ()   10 км    10/10 300 м 
[St]
+6.1 +1.7 73 +6  1013.3  757  298  +5.1         
09 26.03.16 тихо ()   10 км    10/10 300 м 
[St]
+6.8 +2.3 73 +7  1013.2  0.1  757  297           
12 26.03.16 290 (З) 4000 м  слаб. дождь  10/10 300 м 
[Frnb|Ns]
+6.3 +3.6 83 +7  1012.8  -0.4  757  298           
15 26.03.16 300 (СЗ) 4000 м  слаб. дождь  10/10 300 м 
[Frnb|Ns]
+5.2 +2.7 84 +5  1013.7  0.9  758  299    +7     
18 26.03.16 280 (З) 4000 м  слаб. ливневой дождь  10/10 300 м кучево-дожд. 
[Cb cap]
+3.5 +1.9 89 +4  1015.3  1.6  759  302           
21 26.03.16 280 (З) 4000 м  слаб. ливневой дождь  10/10 300 м кучево-дожд. 
[Cb cap]
+3 +1.2 88 +4  1016  0.6  759  302           
00 27.03.16 270 (З) 10 км  {ливн. осадки}  9/9 300 м кучево-дожд. 
[Cb cap]
+3 +1.1 87 +4  1015.9  759  302           
03 27.03.16 тихо ()   4000 м  дымка  3/3 600 м 
[Sc]
+1.3 +0.3 93 +1  1015.9  0.1  759  304  +1.3       
06 27.03.16 180 (Ю) 4000 м  дымка  9/9 600 м 
[Sc]
+4.6 +0.7 76 +5  1017.1  1.3  760  301           
09 27.03.16 210 (ЮЗ) 10 км    8/8 1000 м 
[Sc]
+9.1 -1 49 +9  1016  -1  759  296           
12 27.03.16 270 (З) 10 км    9/9 1000 м 
[Sc]
+9.1 -1.1 49 +9  1015.3  -0.7  759  296           
15 27.03.16 280 (З) 10 км    10/10 1000 м 
[Sc]
+8.1 -1.6 50 +8  1015.5  0.2  759  297    +10.1       
18 27.03.16 280 (З) 10 км    3/3 1000 м 
[Sc]
+6.5 -0.8 60 +7  1016.3  0.8  759  299           
21 27.03.16 тихо ()   10 км    8/8 1000 м 
[Sc]
+4.5 +0.1 73 +5  1016.2  0.1  759  301           
00 28.03.16 тихо ()   10 км    10/3 1000 м верхняя 
[Sc|Ci fib]
+3.3 -0.3 77 +3  1015.3  0.1  759  302           
03 28.03.16 тихо ()   10 км    10/10 1000 м 
[Sc]
+4.3 -0.1 73 +4  1015.2  -0.1  759  301  +2.6         
06 28.03.16 340 (С) 10 км    10/10 1000 м 
[Sc]
+6.3 +0.5 66 +7  1015.6  0.4  759  299           
09 28.03.16 020 (С) 10 км    10/10 1000 м 
[Sc]
+7.9 -0.1 57 +9  1015.3  -0.3  759  297           
12 28.03.16 060 (СВ) 10 км    10/10 1000 м 
[Sc]
+8.6 -0.5 53 +10  1014.9  -0.4  758  296           
15 28.03.16 120 (ЮВ) 10 км    10/8 600 м кучево-дожд., средняя 
[Cb cap|Ac und]
+7.9 +0.6 60 +9  1015.2  0.3  759  297    +9.3       
18 28.03.16 090 (В) 10 км    10/10 1000 м 
[Sc]
+6.3 +2.2 75 +7  1016.2  759  299           
21 28.03.16 210 (ЮЗ) 10 км    10/10 300 м 
[St]
+6 +2.2 77 +7  1016.5  0.3  760  299           
00 29.03.16 250 (З) 10 км    10/10 300 м 
[St]
+6.4 +1.8 72 +6  1016.6  0.1  760  299           
03 29.03.16 тихо ()   10 км    10/4 1000 м верхняя 
[Sc|Cs]
+4 +1.2 82 +4  1017.5  0.9  760  302  +4         
06 29.03.16 200 (Ю) 10 км    9/0 средняя, верхняя 
[Ac trans|Cc]
+7.7 +2 67 +9  1018.8  1.3  761  298  +3.3         
09 29.03.16 130 (ЮВ) 10 км    10/5 1000 м верхняя 
[Cu med, cong|Ci fib]
+11.9 +0.3 45 +13  1019.1  0.3  762  294           
12 29.03.16 270 (З) 10 км    10/10 1000 м кучево-дожд. 
[Cb cap]
+11.4 +0.6 47 +12  1019.2  0.2  762  295           
15 29.03.16 280 (З) 10 км    9/6 1000 м кучево-дожд., средняя 
[Cb cap|Ac trans]
+11.1 +0 46 +11  1020.1  0.8  762  295    +14       
18 29.03.16 230 (ЮЗ) 10 км    10/8 1000 м средняя 
[Sc|Ac und]
+9.7 +0.9 54 +11  1021.5  1.4  763  297           
21 29.03.16 260 (З) 10 км    10/8 1000 м средняя 
[Sc|Ac und]
+8.3 +2.1 65 +8  1021.9  0.4  764  298           
00 30.03.16 260 (З) 10 км    9/8 1000 м средняя 
[Sc|Ac trans]
+7.4 +1.3 65 +8  1022.3  0.4  764  300           
03 30.03.16 тихо ()   10 км    10/6 1000 м средняя, верхняя 
[Sc|Ac trans|Ci fib]
+6.6 +1.5 70 +7  1022.7  0.4  764  300  +6.6         
06 30.03.16 тихо ()   10 км    9/8 1000 м средняя 
[Sc|Ac trans]
+7.9 +1.7 65 +8  1023.6  0.9  765  299  +6.2         
09 30.03.16 040 (СВ) 10 км    9/8 1000 м средняя 
[Sc|Ac trans]
+12.6 +1.9 48 +14  1023.8  0.3  765  294           
12 30.03.16 060 (СВ) 10 км    9/9 1000 м 
[Sc]
+11.6 +1.7 51 +13  1023.1  -0.7  765  295           
15 30.03.16 130 (ЮВ) 10 км    9/9 1000 м 
[Cu med, cong]
+10.8 +1 51 +12  1023  0.1  764  296    +13.6       
18 30.03.16 180 (Ю) 10 км    9/9 1000 м 
[Sc]
+9.4 +2.9 64 +10  1023.7  0.7  765  298           
21 30.03.16 250 (З) 10 км    8/0 верхняя 
[Ci fib]
+7.4 +0.7 62 +8  1023.9  0.2  765  300           
00 31.03.16 250 (З) 10 км    10/8 1000 м верхняя 
[Sc|Ci fib]
+6.1 +1.3 71 +7  1024.5  0.6  766  302           
03 31.03.16 180 (Ю) 10 км    10/3 1000 м верхняя 
[Sc|Ci fib]
+4.1 -0.6 71 +5  1025  0.4  766  304  +4.1         
06 31.03.16 200 (Ю) 10 км    3/3 1000 м 
[Sc]
+9.2 +2.4 62 +10  1025.9  767  299  +4.1         
09 31.03.16 290 (З) 10 км    3/3 1000 м 
[Cu hum]
+13.3 +0 40 +14  1025.4  -0.5  766  294           
12 31.03.16 300 (СЗ) 10 км    5/3 1000 м верхняя 
[Cu hum|Ci fib]
+15.3 +1.1 38 +17  1024.6  -0.5  766  292           
18 31.03.16 200 (Ю) 10 км    6/6 1000 м 
[Sc]
+10.9 +1.6 53 +12  1025  0.9  766  297           
21 31.03.16 200 (Ю) 10 км    10/5 1000 м средняя, верхняя 
[Sc|Ac trans|Ci fib]
+9.2 +1.2 57 +9  1024.2  -0.8  765  298           
00 01.04.16 210 (ЮЗ) 10 км    10/8 1000 м средняя 
[Sc|Ac und]
+9.1 +0.6 55 +9  1023.4  -0.8  765  298           
03 01.04.16 210 (ЮЗ) 10 км    10/10 1000 м 
[Sc]
+9.3 -3.5 40 +9  1022.5  -0.9  764  298  +9        сухая 
06 01.04.16 200 (Ю) 10 км    6/4 1000 м средняя, верхняя 
[Sc|Ac As|Ci fib]
+12 -5.3 29 +11  1022.1  -0.4  764  295           
09 01.04.16 200 (Ю) 5{10}  10 км    8/0 верхняя 
[Ci fib]
+16.7 -2.3 27 +17  1021.1  -0.9  763  290           
Время (UTC), дата Ветер
(°,м/с) 
Видим.   Явления Облачность Т
(°С)
Тd
(°С)
f(%) Тe
(°С)
Pmin
(гПа)
dP
(гПа)
Po
(мм)
O2
(г/м3)
Тmin Tmax R s Состояние
почвы